Weather History for NFFN - February, 2013

Change the Weather History Date:

Sunday, February 24, 2013

  Actual Average Record
Temperature  
Mean Temperature 78 °F -  
Max Temperature 82 °F 86 °F 91 °F (1998)
Min Temperature 74 °F 73 °F 73 °F (1997)
Cooling Degree Days 13    
Growing Degree Days 28 (Base 50)    
Moisture  
Dew Point 76 °F    
Average Humidity 95    
Maximum Humidity 100    
Minimum Humidity 79    
Precipitation  
Precipitation 2.36 in 0.42 in - ()
Sea Level Pressure  
Sea Level Pressure 29.76 in    
Wind  
Wind Speed 8 mph ()    
Max Wind Speed 21 mph    
Max Gust Speed -    
Visibility 6.4 miles    
Events Rain    
Averages and records for this station are not official NWS values.
T = Trace of Precipitation, MM = Missing Value Source: Averaged Metar Reports

Daily Weather History Graph

Daily Weather History Graph

Search for Another Location

Airport or City:

Trip Planner

Search our weather history database for the weather conditions in past years. The results will help you decide how hot, cold, wet, or windy it might be!

Date:

Astronomy

Feb. 24, 2013 Rise Set
Actual Time 6:07 AM FJT 6:39 PM FJT
Civil Twilight 5:45 AM FJT 7:01 PM FJT
Nautical Twilight 5:19 AM FJT 7:27 PM FJT
Astronomical Twilight 4:53 AM FJT 7:53 PM FJT
Moon 5:16 PM FJT (2/24) 4:19 AM FJT (2/24)
Length of Visible Light 13h 15m
Length of Day
12h 31m
Waxing Gibbous, 96% of the Moon is Illuminated
Feb 24
Waxing Gibbous
Feb 26
Full
Mar 5
Last Quarter
Mar 12
New
Mar 20
First Quarter

Hourly Weather History & Observations

Time (FJT) Temp. Heat Index Dew Point Humidity Pressure Visibility Wind Dir Wind Speed Gust Speed Precip Events Conditions
12:00 AM 77 °F - 76 °F 94% 29.81 in 12 mi North 9.2 mph - -   Partly Cloudy
12:00 AM 77.0 °F - 75.2 °F 94% 29.80 in 6.2 mi North 9.2 mph - N/A   Mostly Cloudy
1:00 AM 78.8 °F - 77.0 °F 94% 29.80 in 6.2 mi NNE 3.5 mph - N/A   Scattered Clouds
2:00 AM 77.0 °F - 75.2 °F 94% 29.77 in 6.2 mi ENE 3.5 mph - N/A   Mostly Cloudy
3:00 AM 75 °F - 75 °F 99% 29.76 in 12 mi ESE 4.6 mph - -   Partly Cloudy
3:00 AM 75.2 °F - 75.2 °F 100% 29.74 in 6.2 mi ESE 4.6 mph - N/A   Scattered Clouds
4:00 AM 75.2 °F - 73.4 °F 94% 29.77 in 6.2 mi WNW 11.5 mph - N/A Rain Rain
5:00 AM 77.0 °F - 75.2 °F 94% 29.77 in 6.2 mi NNW 8.1 mph - N/A Rain Rain
5:10 AM 77.0 °F - 75.2 °F 94% 29.77 in 1.9 mi NNE 8.1 mph - N/A Rain Rain
5:25 AM 77.0 °F - 75.2 °F 94% 29.77 in 6.2 mi NE 6.9 mph - N/A Rain Light Rain
6:00 AM 75 °F - 75 °F 99% 29.77 in 12 mi NE 6.9 mph - - Rain Light Rain
6:00 AM 75.2 °F - 75.2 °F 100% 29.74 in 6.2 mi NE 6.9 mph - N/A   Overcast
7:00 AM 77.0 °F - 75.2 °F 94% 29.77 in 6.2 mi North 6.9 mph - N/A   Mostly Cloudy
8:00 AM 80.6 °F 86.2 °F 75.2 °F 84% 29.80 in 6.2 mi NNW 5.8 mph - N/A   Mostly Cloudy
9:00 AM 82 °F - 77 °F 79% 29.81 in 12 mi NW 11.5 mph - -   Partly Cloudy
9:00 AM 82.4 °F 90.9 °F 77.0 °F 84% 29.80 in 6.2 mi NW 11.5 mph - N/A   Mostly Cloudy
10:00 AM 80.6 °F 87.1 °F 77.0 °F 89% 29.80 in 1.9 mi WNW 12.7 mph - N/A Rain Heavy Rain Showers
10:20 AM 78.8 °F - 77.0 °F 94% 29.80 in 6.2 mi NNW 5.8 mph - N/A   Mostly Cloudy
11:00 AM 80.6 °F 88.1 °F 78.8 °F 94% 29.80 in 6.2 mi NW 9.2 mph - N/A   Mostly Cloudy
12:00 PM 78 °F - 78 °F 98% 29.80 in 2 mi NW 20.7 mph - - Rain Heavy Rain Showers
12:00 PM 78.8 °F - 77.0 °F 94% 29.77 in 3.1 mi NW 20.7 mph - N/A Rain Heavy Rain Showers
12:30 PM 77.0 °F - 77.0 °F 100% 29.77 in 6.2 mi North 15.0 mph - N/A Rain Light Rain
1:00 PM 77.0 °F - 77.0 °F 100% 29.77 in 6.2 mi North 9.2 mph - N/A   Mostly Cloudy
2:00 PM 78.8 °F - 77.0 °F 94% 29.74 in 6.2 mi North 10.4 mph - N/A   Overcast
3:00 PM 81 °F - 78 °F 88% 29.73 in 12 mi NNW 8.1 mph - - Rain Light Rain
3:00 PM 80.6 °F 88.1 °F 78.8 °F 94% 29.71 in 6.2 mi NNW 8.1 mph - N/A Rain Light Rain
4:00 PM 78.8 °F - 77.0 °F 94% 29.71 in 6.2 mi WNW 12.7 mph - N/A   Overcast
5:00 PM 78.8 °F - 78.8 °F 100% 29.71 in 6.2 mi NW 12.7 mph - N/A Rain Light Rain
5:25 PM 78.8 °F - 78.8 °F 100% 29.71 in 1.2 mi West 20.7 mph - N/A Rain Heavy Rain
6:00 PM 78 °F - 77 °F 96% 29.73 in 2 mi NW 16.1 mph - - Rain Heavy Rain
6:00 PM 77.0 °F - 77.0 °F 100% 29.71 in 3.1 mi NW 16.1 mph - N/A Rain Heavy Rain
6:40 PM 77.0 °F - 77.0 °F 100% 29.74 in 6.2 mi NW 13.8 mph - N/A Rain Light Rain
7:00 PM 77.0 °F - 77.0 °F 100% 29.74 in 6.2 mi NW 13.8 mph - N/A Rain Light Rain
8:00 PM 77.0 °F - 75.2 °F 94% 29.74 in 6.2 mi NNW 6.9 mph - N/A Rain Light Rain
9:00 PM 76 °F - 75 °F 94% 29.76 in 12 mi NNE 5.8 mph - - Rain Light Rain
9:00 PM 77.0 °F - 75.2 °F 94% 29.74 in 6.2 mi NNE 5.8 mph - N/A Rain Light Rain
10:00 PM 77.0 °F - 75.2 °F 94% 29.77 in 6.2 mi Calm Calm - N/A   Mostly Cloudy
11:00 PM 75.2 °F - 75.2 °F 100% 29.77 in 6.2 mi SE 5.8 mph - N/A   Mostly Cloudy